FW9981 Weather Reports


time (UTC)temp
C
wind
direction
speed
KPH
gust
KPH
rain 1hr
cm
rain 24hr
cm
rain mn
cm
humidity
%
barometer
mb
20260507085646 7 64 0.0 0.0 0.00 0.43 0.43 99 1001.3
20260507085142 7 13 1.6 1.6 0.00 0.43 0.43 99 1001.2
20260507084639 7 39 1.6 1.6 0.00 0.43 0.43 99 1000.8
20260507084136 7 49 0.0 0.0 0.00 0.43 0.43 99 1000.8
20260507083633 7 57 0.0 0.0 0.00 0.43 0.43 99 1000.9
20260507083130 7 64 0.0 0.0 0.00 0.43 0.43 99 1000.9
20260507082625 7 50 1.6 1.6 0.00 0.43 0.43 99 1000.7
20260507082122 7 43 0.0 0.0 0.00 0.43 0.43 99 1000.5
20260507081619 7 42 0.0 0.0 0.00 0.43 0.43 99 1000.7
20260507081115 7 42 0.0 1.6 0.00 0.43 0.43 99 1000.8
20260507080612 7 42 0.0 1.6 0.00 0.43 0.43 99 1000.7
20260507080108 7 43 0.0 1.6 0.00 0.43 0.43 99 1000.6
20260507075603 7 16 1.6 1.6 0.00 0.43 0.43 99 1000.5
20260507075100 7 49 1.6 1.6 0.00 0.43 0.43 99 1000.6
20260507074556 7 62 0.0 1.6 0.00 0.43 0.43 99 1000.3
20260507074055 7 53 0.0 0.0 0.00 0.43 0.43 99 1000.6
20260507073550 7 350 3.2 3.2 0.00 0.43 0.43 99 1000.7
20260507073047 7 56 0.0 1.6 0.00 0.43 0.43 99 1000.7
20260507072545 7 57 0.0 0.0 0.00 0.43 0.43 99 1000.8
20260507072042 8 297 3.2 4.8 0.00 0.43 0.43 99 1000.7
20260507071539 8 46 0.0 0.0 0.00 0.43 0.43 99 1000.5
20260507071036 8 66 0.0 0.0 0.00 0.43 0.43 99 1000.2
20260507070533 8 78 0.0 0.0 0.00 0.43 0.43 99 1000.1
20260507070030 8 48 0.0 0.0 0.00 0.43 0.43 99 1000.1
20260507065526 8 48 0.0 0.0 0.00 0.43 0.43 99 1000.1
20260507065023 8 49 0.0 0.0 0.00 0.43 0.43 99 1000.1
20260507064521 8 45 1.6 1.6 0.00 0.43 0.43 99 1000.1
20260507064020 8 55 0.0 0.0 0.00 0.43 0.43 99 999.9
20260507063516 8 52 0.0 1.6 0.00 0.43 0.43 99 999.9
20260507063014 8 70 0.0 0.0 0.00 0.43 0.43 99 999.6
20260507062510 8 72 0.0 0.0 0.00 0.43 0.43 99 999.7
20260507062008 8 48 0.0 0.0 0.00 0.43 0.43 99 999.6
20260507061505 8 48 0.0 0.0 0.00 0.43 0.43 99 1000.0
20260507061003 8 80 0.0 0.0 0.00 0.43 0.43 99 999.9
20260507060500 8 52 0.0 0.0 0.00 0.43 0.43 99 999.5
20260507055956 8 45 0.0 0.0 0.00 0.43 0.43 99 999.5
20260507055452 8 45 0.0 0.0 0.00 0.43 0.43 99 999.6
20260507054949 8 45 0.0 1.6 0.00 0.43 0.43 99 999.6
20260507054445 8 48 0.0 1.6 0.00 0.43 0.43 99 999.3
20260507053942 8 74 1.6 1.6 0.00 0.43 0.43 99 999.4
20260507053440 8 62 0.0 0.0 0.00 0.43 0.43 99 999.6
20260507052938 8 49 1.6 1.6 0.00 0.43 0.43 99 999.6
20260507052436 8 47 3.2 4.8 0.00 0.43 0.43 99 999.5
20260507051933 8 70 3.2 3.2 0.00 0.43 0.43 99 999.5
20260507051430 9 88 1.6 1.6 0.00 0.43 0.43 99 999.8
20260507050927 9 64 1.6 1.6 0.00 0.43 0.43 99 999.8
20260507050423 9 76 1.6 1.6 0.00 0.43 0.43 99 999.6
20260507045920 9 60 0.0 1.6 0.00 0.43 0.43 99 1000.0
20260507045417 9 73 0.0 1.6 0.13 0.43 0.43 99 999.9
20260507044914 10 59 0.0 0.0 0.30 0.43 0.43 99 999.8
20260507044411 10 24 3.2 6.4 0.30 0.41 0.41 99 999.7
20260507043907 10 81 1.6 1.6 0.30 0.38 0.38 99 999.5
20260507043403 10 56 0.0 0.0 0.66 0.36 0.36 99 1000.0
20260507042859 10 68 1.6 1.6 1.19 0.33 0.33 99 1000.0
20260507042355 10 47 3.2 4.8 0.89 0.25 0.25 99 1000.0
20260507041846 10 52 1.6 1.6 0.18 0.13 0.13 99 1000.0
20260507041343 11 91 3.2 3.2 0.00 0.10 0.10 99 999.6
20260507040841 11 63 3.2 3.2 0.13 0.10 0.10 99 999.3
20260507040337 11 56 0.0 0.0 0.30 0.10 0.10 99 999.0
20260507035833 11 62 0.0 0.0 0.18 0.08 0.08 99 999.2
20260507035328 11 69 0.0 1.6 0.13 0.05 0.05 99 998.9
20260507034826 11 61 0.0 0.0 0.13 0.05 0.05 99 999.0
20260507034322 11 61 0.0 0.0 0.00 0.03 0.03 99 999.1
20260507033821 11 30 1.6 1.6 0.00 0.03 0.03 99 999.2
20260507033318 11 39 0.0 0.0 0.00 0.03 0.03 99 999.1
20260507032815 11 39 0.0 0.0 0.18 0.03 0.03 99 998.9
20260507032311 11 48 0.0 0.0 0.18 0.03 0.03 99 999.0
20260507031808 11 62 0.0 0.0 0.18 0.03 0.03 99 998.8
20260507031304 11 99 0.0 0.0 0.13 0.00 0.00 99 998.7
20260507030800 11 62 0.0 0.0 0.13 0.00 0.00 99 998.6
20260507030258 11 62 0.0 0.0 0.00 1.14 1.14 99 998.9
20260507025755 11 63 0.0 0.0 0.00 1.14 1.14 99 998.8
20260507025253 11 63 0.0 0.0 0.00 1.14 1.14 99 998.7
20260507024750 11 60 0.0 0.0 0.00 1.14 1.14 99 998.7
20260507024247 11 37 1.6 1.6 0.00 1.14 1.14 99 998.7
20260507023743 11 9 1.6 1.6 0.00 1.14 1.14 99 998.6
20260507023240 11 83 0.0 1.6 0.00 1.14 1.14 99 998.6
20260507022737 11 223 3.2 4.8 0.00 1.14 1.14 99 998.5
20260507022233 11 17 3.2 3.2 0.00 1.14 1.14 99 998.5
20260507021730 11 100 1.6 1.6 0.00 1.14 1.14 99 998.7
20260507021226 11 152 1.6 1.6 0.00 1.14 1.14 99 998.6
20260507020724 11 301 3.2 3.2 0.00 1.14 1.14 99 998.5
20260507020220 11 83 3.2 3.2 0.00 1.14 1.14 99 998.6
20260507015718 11 75 1.6 3.2 0.00 1.14 1.14 99 998.7
20260507015215 11 36 1.6 1.6 0.00 1.14 1.14 99 998.8
20260507014706 11 254 3.2 3.2 0.18 1.14 1.14 99 998.9
20260507014202 11 240 3.2 3.2 0.18 1.14 1.14 99 998.9
20260507013659 11 70 1.6 1.6 0.00 1.12 1.12 99 999.0
20260507013156 11 173 4.8 6.4 0.18 1.12 1.12 99 999.0
20260507012654 11 228 6.4 9.7 0.18 1.12 1.12 99 998.8
20260507012149 11 95 3.2 9.7 0.00 1.09 1.09 99 999.0
20260507011647 11 226 3.2 3.2 0.00 1.09 1.09 99 999.0
20260507011143 11 308 4.8 4.8 0.00 1.09 1.09 99 998.9
20260507010638 11 190 8.0 11.3 0.00 1.09 1.09 99 999.2
20260507010134 11 159 4.8 4.8 0.00 1.09 1.09 99 999.0
20260507005632 11 281 4.8 4.8 0.00 1.09 1.09 99 999.2
20260507005127 11 262 3.2 3.2 0.00 1.09 1.09 99 999.2
20260507004625 11 210 4.8 4.8 0.00 1.09 1.09 99 999.3
20260507004122 11 266 3.2 4.8 0.00 1.09 1.09 99 999.1
20260507003618 11 242 3.2 4.8 0.00 1.09 1.09 99 999.2
20260507003113 11 292 6.4 9.7 0.00 1.09 1.09 99 999.5
20260507002610 11 182 8.0 14.5 0.00 1.09 1.09 99 999.5
20260507002106 11 211 3.2 4.8 0.00 1.09 1.09 99 999.7
20260507001603 11 197 1.6 3.2 0.00 1.09 1.09 99 999.4
20260507001100 11 249 4.8 4.8 0.00 1.09 1.09 99 999.2
20260507000556 11 172 0.0 1.6 0.00 1.09 1.09 99 999.2
20260507000052 11 303 0.0 1.6 0.00 1.09 1.09 99 999.2
20260506235550 11 21 0.0 1.6 0.00 1.09 1.09 99 999.2
20260506235044 11 278 3.2 4.8 0.00 1.09 1.09 99 999.2
20260506234542 12 247 3.2 3.2 0.00 1.09 1.09 99 999.4
20260506234039 12 188 4.8 6.4 0.00 1.09 1.09 99 999.1
20260506233536 12 259 4.8 4.8 0.00 1.09 1.09 99 999.3
20260506233033 12 245 3.2 4.8 0.00 1.09 1.09 99 999.4
20260506232529 12 44 4.8 6.4 0.00 1.09 1.09 99 999.4
20260506232025 12 188 4.8 6.4 0.00 1.09 1.09 99 999.4
20260506231522 12 267 4.8 4.8 0.00 1.09 1.09 99 999.4
20260506231015 12 207 3.2 3.2 0.00 1.09 1.09 99 999.5
20260506230510 12 273 4.8 6.4 0.00 1.09 1.09 99 999.4
20260506230008 12 272 4.8 6.4 0.00 1.09 1.09 99 999.6
20260506225505 12 279 3.2 4.8 0.00 1.09 1.09 99 999.8
20260506225001 12 198 3.2 3.2 0.00 1.09 1.09 99 999.8
20260506224458 12 60 0.0 0.0 0.00 1.09 1.09 99 999.6
20260506223954 12 175 3.2 4.8 0.00 1.09 1.09 99 999.8
20260506223450 12 260 6.4 6.4 0.00 1.09 1.09 99 999.7
20260506222948 12 335 3.2 3.2 0.00 1.09 1.09 99 999.8
20260506222444 12 282 3.2 3.2 0.00 1.09 1.09 99 999.8
20260506221941 12 286 3.2 3.2 0.00 1.09 1.09 99 1000.3
20260506221438 12 244 3.2 3.2 0.00 1.09 1.09 99 1000.1
20260506220936 12 212 3.2 4.8 0.13 1.09 1.09 99 1000.1
20260506220431 12 331 4.8 4.8 0.30 1.09 1.09 99 1000.3
20260506215928 12 240 4.8 6.4 0.48 1.07 1.07 99 1000.3
20260506215424 12 300 3.2 3.2 0.43 1.04 1.04 99 1000.2
20260506214920 12 177 3.2 3.2 0.13 0.99 0.99 99 1000.3
20260506214417 12 276 1.6 1.6 0.18 0.97 0.97 99 1000.3
20260506213914 12 269 3.2 3.2 0.18 0.97 0.97 99 1000.3
20260506213412 12 239 6.4 14.5 0.18 0.97 0.97 99 1000.2
20260506212909 12 255 4.8 4.8 0.00 0.94 0.94 99 1000.4
20260506212405 12 182 8.0 9.7 0.00 0.94 0.94 99 1000.5
20260506211900 12 302 3.2 3.2 0.00 0.94 0.94 99 1000.4
20260506211356 12 255 6.4 11.3 0.13 0.94 0.94 99 1000.5
20260506210848 12 283 11.3 14.5 0.13 0.94 0.94 99 1000.6
20260506210345 12 47 0.0 1.6 0.30 0.94 0.94 99 1000.2
20260506205842 12 226 1.6 3.2 0.18 0.91 0.91 99 1000.7
20260506205338 12 252 4.8 4.8 0.13 0.89 0.89 99 1000.2
20260506204834 12 353 1.6 3.2 0.30 0.89 0.89 99 1000.3
20260506204332 12 220 3.2 3.2 0.18 0.86 0.86 99 1000.7
20260506203830 12 233 1.6 3.2 0.13 0.84 0.84 99 1000.7
20260506203327 12 167 1.6 3.2 0.13 0.84 0.84 99 1000.7
20260506202823 12 232 3.2 4.8 0.18 0.81 0.81 99 1000.6
20260506202321 12 64 0.0 0.0 0.36 0.81 0.81 99 1000.4
20260506201817 12 273 4.8 6.4 0.36 0.81 0.81 99 1000.6
20260506201315 12 305 3.2 4.8 0.30 0.79 0.79 99 1000.8
20260506200811 12 242 3.2 4.8 0.30 0.76 0.76 99 1000.7
20260506200307 12 268 4.8 4.8 0.18 0.74 0.74 99 1001.0
20260506195803 12 229 4.8 4.8 0.00 0.71 0.71 99 1000.8
20260506195300 12 14 3.2 3.2 0.13 0.71 0.71 99 1000.9
20260506194757 12 287 3.2 4.8 0.13 0.71 0.71 99 1000.9
20260506194254 12 31 1.6 3.2 0.18 0.69 0.69 99 1000.9
20260506193752 12 152 1.6 1.6 0.30 0.69 0.69 99 1000.9
20260506193248 12 351 3.2 3.2 0.30 0.66 0.66 99 1000.9
20260506192744 12 98 1.6 1.6 1.37 0.66 0.66 99 1001.4
20260506192242 12 55 4.8 4.8 1.80 0.43 0.43 99 1001.5
20260506191738 12 55 4.8 4.8 1.80 0.43 0.43 99 1001.5
20260506191235 12 106 0.0 1.6 0.97 0.25 0.25 99 1001.4
20260506190732 12 75 3.2 6.4 0.61 0.13 0.13 98 1001.7
20260506190228 12 18 3.2 3.2 0.43 0.10 0.10 97 1001.2
20260506185726 12 189 3.2 4.8 0.30 0.05 0.05 96 1001.4
20260506185222 12 264 4.8 4.8 0.18 0.03 0.03 95 1001.1
20260506184719 13 193 4.8 6.4 0.00 0.00 0.00 94 1001.3
20260506184217 13 244 3.2 4.8 0.00 0.00 0.00 92 1000.9
20260506183713 13 329 3.2 3.2 0.00 0.00 0.00 91 1001.1
20260506183209 13 288 3.2 3.2 0.00 0.00 0.00 90 1001.1
20260506182706 13 261 9.7 11.3 0.00 0.00 0.00 88 1001.1
20260506182203 14 268 1.6 3.2 0.00 0.00 0.00 88 1000.9
20260506181701 14 291 6.4 9.7 0.00 0.00 0.00 87 1001.2
20260506181158 14 52 1.6 1.6 0.00 0.00 0.00 87 1001.3
20260506180655 14 31 1.6 1.6 0.00 0.00 0.00 86 1001.2
20260506180151 15 264 3.2 4.8 0.00 0.00 0.00 86 1001.4
20260506175647 15 268 6.4 6.4 0.00 0.00 0.00 86 1001.2
20260506175145 15 2 0.0 0.0 0.00 0.00 0.00 86 1001.2
20260506174638 15 68 3.2 3.2 0.00 0.00 0.00 86 1001.2
20260506174134 15 340 3.2 3.2 0.00 0.00 0.00 86 1001.5
20260506173631 15 112 3.2 3.2 0.00 0.00 0.00 86 1001.5
20260506173128 15 210 4.8 4.8 0.00 0.00 0.00 86 1001.6
20260506172626 15 298 3.2 3.2 0.00 0.00 0.00 86 1001.8
20260506172121 15 270 4.8 4.8 0.00 0.00 0.00 86 1001.9
20260506171619 15 306 1.6 3.2 0.00 0.00 0.00 85 1001.9
20260506171116 15 223 3.2 3.2 0.00 0.00 0.00 85 1002.0
20260506170613 15 252 6.4 9.7 0.00 0.00 0.00 85 1001.9
20260506170105 15 240 3.2 3.2 0.00 0.00 0.00 85 1002.2
20260506165604 15 88 1.6 1.6 0.00 0.00 0.00 85 1002.3
20260506165059 15 89 1.6 1.6 0.00 0.00 0.00 85 1002.5
20260506164557 15 280 3.2 3.2 0.00 0.00 0.00 85 1002.6
20260506164054 15 219 4.8 4.8 0.00 0.00 0.00 85 1002.4
20260506163549 15 282 4.8 4.8 0.00 0.00 0.00 85 1002.8
20260506163045 15 162 1.6 1.6 0.00 0.00 0.00 85 1002.7
20260506162541 15 106 3.2 4.8 0.00 0.00 0.00 85 1002.9
20260506162033 15 61 1.6 1.6 0.00 0.00 0.00 86 1003.0
20260506161530 15 94 1.6 3.2 0.00 0.00 0.00 85 1003.1
20260506161022 15 53 0.0 0.0 0.00 0.00 0.00 85 1002.9
20260506160520 15 260 6.4 9.7 0.00 0.00 0.00 85 1003.3
20260506160016 15 142 1.6 3.2 0.00 0.00 0.00 85 1003.4
20260506155514 15 154 1.6 1.6 0.00 0.00 0.00 86 1003.5
20260506153646 15 194 3.2 3.2 0.00 0.00 0.00 85 1003.6
20260506153143 15 230 3.2 3.2 0.00 0.00 0.00 85 1003.6
20260506152640 15 144 1.6 3.2 0.00 0.00 0.00 85 1003.5
20260506152138 15 107 1.6 3.2 0.00 0.00 0.00 84 1003.3
20260506151636 15 309 4.8 4.8 0.00 0.00 0.00 84 1003.4
20260506151133 15 347 3.2 3.2 0.00 0.00 0.00 84 1003.3
20260506150630 15 127 3.2 4.8 0.00 0.00 0.00 84 1003.4
20260506150127 15 104 1.6 1.6 0.00 0.00 0.00 84 1003.4
20260506145623 15 137 3.2 3.2 0.00 0.00 0.00 86 1003.2
20260506145120 15 69 0.0 0.0 0.00 0.00 0.00 86 1003.2
20260506144618 15 57 3.2 3.2 0.00 0.00 0.00 85 1002.8
20260506144114 15 103 6.4 6.4 0.00 0.00 0.00 84 1003.0
20260506143612 15 79 1.6 1.6 0.00 0.00 0.00 85 1002.9
20260506143110 15 355 3.2 3.2 0.00 0.00 0.00 84 1002.9
20260506142608 15 83 3.2 3.2 0.00 0.00 0.00 85 1003.1
20260506142106 15 78 0.0 0.0 0.00 0.00 0.00 83 1003.1
20260506141603 15 24 3.2 4.8 0.00 0.00 0.00 84 1003.4
20260506141101 15 73 3.2 3.2 0.00 0.00 0.00 84 1003.4
20260506140558 15 110 0.0 1.6 0.00 0.00 0.00 84 1003.5
20260506140056 15 96 1.6 1.6 0.00 0.00 0.00 84 1003.5
20260506135552 15 142 1.6 3.2 0.00 0.00 0.00 85 1003.7
20260506135048 15 331 1.6 1.6 0.00 0.00 0.00 85 1004.0
20260506134545 15 165 1.6 1.6 0.00 0.00 0.00 85 1003.8
20260506134041 15 87 1.6 1.6 0.00 0.00 0.00 86 1003.7
20260506133538 15 59 0.0 1.6 0.00 0.00 0.00 85 1003.6
20260506133035 15 328 4.8 4.8 0.00 0.00 0.00 84 1003.5
20260506132533 15 50 1.6 1.6 0.00 0.00 0.00 84 1003.5
20260506132030 14 97 0.0 0.0 0.00 0.00 0.00 86 1003.6
20260506131527 14 319 3.2 3.2 0.00 0.00 0.00 85 1003.6
20260506131023 14 57 0.0 1.6 0.00 0.00 0.00 86 1003.4
20260506130520 14 273 6.4 6.4 0.00 0.00 0.00 86 1003.5
20260506130018 14 254 1.6 3.2 0.00 0.00 0.00 86 1003.6
20260506125516 13 25 1.6 1.6 0.00 0.00 0.00 86 1003.6
20260506125013 13 90 1.6 1.6 0.00 0.00 0.00 85 1003.7
20260506124511 13 34 1.6 1.6 0.00 0.00 0.00 87 1003.5
20260506124009 13 85 0.0 0.0 0.00 0.00 0.00 88 1003.6
20260506123506 13 38 1.6 1.6 0.00 0.00 0.00 87 1003.7
20260506123004 13 71 0.0 0.0 0.00 0.00 0.00 86 1003.5
20260506122501 13 80 1.6 1.6 0.00 0.00 0.00 88 1003.8
20260506121959 13 81 1.6 1.6 0.00 0.00 0.00 88 1003.8
20260506121456 12 85 0.0 0.0 0.00 0.00 0.00 89 1003.9
20260506120952 12 62 0.0 1.6 0.00 0.00 0.00 88 1004.1
20260506120450 12 74 0.0 0.0 0.00 0.00 0.00 89 1003.9
20260506115947 12 65 0.0 1.6 0.00 0.00 0.00 89 1004.1
20260506115445 12 95 1.6 1.6 0.00 0.00 0.00 88 1004.1
20260506114943 12 84 0.0 1.6 0.00 0.00 0.00 90 1004.3
20260506114440 12 84 0.0 0.0 0.00 0.00 0.00 89 1004.2
20260506113939 12 77 0.0 1.6 0.00 0.00 0.00 89 1004.4
20260506113436 12 78 0.0 0.0 0.00 0.00 0.00 89 1004.5
20260506112932 12 102 0.0 1.6 0.00 0.00 0.00 89 1004.5
20260506112430 12 74 1.6 1.6 0.00 0.00 0.00 90 1004.3
20260506111927 12 78 1.6 1.6 0.00 0.00 0.00 89 1004.7
20260506111425 12 77 0.0 0.0 0.00 0.00 0.00 90 1004.4
20260506110922 12 77 0.0 0.0 0.00 0.00 0.00 90 1004.7
20260506110420 11 78 0.0 0.0 0.00 0.00 0.00 90 1004.3
20260506105916 11 61 0.0 0.0 0.00 0.00 0.00 90 1004.5
20260506105413 11 72 0.0 0.0 0.00 0.00 0.00 91 1004.2
20260506104910 11 72 0.0 0.0 0.00 0.00 0.00 92 1004.2
20260506104408 11 72 0.0 0.0 0.00 0.00 0.00 91 1004.2
20260506103906 11 72 0.0 0.0 0.00 0.00 0.00 91 1004.2
20260506103403 11 72 0.0 0.0 0.00 0.00 0.00 92 1004.3
20260506102900 11 72 0.0 0.0 0.00 0.00 0.00 91 1004.1
20260506102358 11 73 1.6 1.6 0.00 0.00 0.00 92 1004.0
20260506101855 11 77 0.0 1.6 0.00 0.00 0.00 92 1003.9
20260506101351 11 81 3.2 3.2 0.00 0.00 0.00 92 1004.1
20260506100849 11 74 0.0 1.6 0.00 0.00 0.00 92 1004.0
20260506100347 11 86 0.0 1.6 0.00 0.00 0.00 91 1004.1
20260506095845 11 64 0.0 0.0 0.00 0.00 0.00 91 1004.2
20260506095342 11 78 0.0 1.6 0.00 0.00 0.00 91 1004.3
20260506094839 11 64 0.0 1.6 0.00 0.00 0.00 91 1004.1
20260506094338 11 81 0.0 0.0 0.00 0.00 0.00 90 1004.5
20260506093835 11 46 1.6 1.6 0.00 0.00 0.00 91 1004.7
20260506093332 11 68 0.0 1.6 0.00 0.00 0.00 91 1004.3
20260506092830 11 65 0.0 1.6 0.00 0.00 0.00 91 1004.3
20260506092328 11 87 0.0 1.6 0.00 0.00 0.00 91 1004.2
20260506091824 11 102 1.6 1.6 0.00 0.00 0.00 92 1004.0
20260506091322 11 119 3.2 3.2 0.00 0.00 0.00 92 1004.1
20260506090819 11 74 0.0 1.6 0.00 0.00 0.00 94 1003.9
20260506090317 11 74 0.0 0.0 0.00 0.00 0.00 93 1004.0